Powrót do katalogu

FALCON 9 R/B

AktywnyHEO
NORAD 47307·ROCKET BODY·🇺🇸 United States

Wystrzelony Jan 8, 2021 z Cape Canaveral Space Force Station

Loading…

Następne Przeloty (najbliższe 24 godziny)

TLE

ŚwieżeSource: Space-Track

Epoka: Sep 14, 2026, 07:26 UTC

1 47307U 21001B   26257.31033547  .00006730  72125-6  91749-3 0  9995
2 47307  15.1327 160.9747 7820497  81.6525 351.0438  1.65770577 31632

Śledź FALCON 9 R/B w czasie rzeczywistym z AllMySat

Download on the App Store